Regional Weather Roundup
Issued by NWS

Home | Current Version | Previous Version | Text Only | Print | Product List | Glossary On
Versions: 1 2 3 4 5 6 7 8 9 10 11 12 13 14 15 16 17 18 19 20 21 22 23 24 25 26 27 28 29 30 31 32 33 34 35 36 37 38 39 40 41 42 43 44 45 46 47 48 49 50
000
ASUS44 KFWD 282210
RWRTX
NORTH TEXAS HOURLY WEATHER ROUNDUP
NATIONAL WEATHER SERVICE FORT WORTH TX
500 PM CDT THU APR 28 2016

NOTE: "FAIR" INDICATES FEW OR NO CLOUDS BELOW 12,000 FEET WITH NO
SIGNIFICANT WEATHER AND/OR OBSTRUCTIONS TO VISIBILITY.

TXZ118-119-282300-
DALLAS/FORT WORTH METROPLEX

CITY           SKY/WX    TMP DP  RH WIND       PRES   REMARKS
DFW AIRPORT    MOSUNNY   84  56  38 E13       29.79F
DALLAS LOVE    SUNNY     86  56  35 SE16      29.79F
FTW MEACHAM    SUNNY     85  53  33 SE22G29   29.78F
DAL-EXECUTIVE  SUNNY     82  57  42 SE15G23   29.79F
FTW-ALLIANCE   MOSUNNY   82  57  42 SE17      29.79F
FTW-NAS-JRB    SUNNY     85  51  31 SE15G23   29.79F
FTW-SPINKS     SUNNY     82  55  39 E15       29.81F
ARLINGTON      SUNNY     85  58  39 SE15      29.80S
GRAND PRAIRIE  SUNNY     82  54  36 E14G24    29.81F
ADDISON        SUNNY    N/A N/A N/A E17G23    29.80F
MESQUITE       SUNNY     82  57  42 E15       29.81F
LANCASTER      SUNNY     82  56  40 E9G17     29.81F
$$

TXZ091>094-102>105-117-120-121-131>134-282300-
NORTH CENTRAL TEXAS

CITY           SKY/WX    TMP DP  RH WIND       PRES   REMARKS
SHRMAN/DENISON SUNNY     77  52  41 E14       29.84F
GAINESVILLE    SUNNY     79  57  46 SE10      29.84F
BOWIE          SUNNY     81  53  37 SE10G20   29.81F
BRIDGEPORT     SUNNY     82  57  43 SE13G20   29.81F
DECATUR        SUNNY     81  55  40 E15       29.81F
DENTON         SUNNY     83  56  39 SE12      29.80F
MCKINNEY       SUNNY     81  59  47 E10       29.81F
GREENVILLE     SUNNY     82  54  36 E9        29.83F
ROCKWALL       SUNNY     82  60  47 E7G16     29.80F
TERRELL        SUNNY     85  57  38 E12       29.81F
WAXAHACHIE     SUNNY     82  60  48 E9G18     29.81F
CLEBURNE       SUNNY     82  61  47 E16       29.81F
GRANBURY       SUNNY     85  53  33 E17G24    29.80S
$$

TXZ083>090-098>101-113>116-127>130-139>142-154-155-282300-
WESTERN NORTH TEXAS

CITY           SKY/WX    TMP DP  RH WIND       PRES   REMARKS
WICHITA FALLS  SUNNY     81  55  40 SE21G26   29.78F
WF-KICKAPOO    SUNNY     83  53  34 SE15G28   29.79F
VERNON         SUNNY     82  50  33 SE18G24   29.77F
ABILENE        SUNNY     83  51  33 SE22G28   29.75F
ABILENE-DYESS  SUNNY     83  59  44 SE22G28   29.73F
BRECKENRIDGE   SUNNY     86  48  26 SE18G26   29.76F HAZE
GRAHAM         SUNNY     83  51  32 SE10G25   29.76F
MINERAL WELLS  SUNNY     83  56  39 SE20      29.77F
STEPHENVILLE   SUNNY     82  56  39 SE13G20   29.82F
COMANCHE       SUNNY     82  58  44 SE16G22   29.77F
COLEMAN        SUNNY     84  52  33 SE14G22   29.76F
$$

TXZ143>147-156>162-174-175-282300-
CENTRAL TEXAS

CITY           SKY/WX    TMP DP  RH WIND       PRES   REMARKS
WACO           SUNNY     85  62  46 E14       29.78F
WACO-TSTC      SUNNY     84  63  48 SE9       29.78F
WACO-MCGREGOR  SUNNY     85  65  51 E15       29.77F
HILLSBORO      SUNNY     82  60  46 E14       29.79F
CORSICANA      SUNNY     85  59  41 E13       29.81F
MEXIA          SUNNY     83  62  49 SE12      29.79S
HEARNE         SUNNY     86  67  51 E6        29.76F
CAMERON        SUNNY     86  65  49 E7G16     29.75F
TEMPLE         SUNNY     84  66  54 E14       29.77F
KILLEEN        SUNNY     83  64  52 E18G24    29.76F
KILLEEN-SKYLRK SUNNY     84  66  54 SE12G20   29.77F
FORT HOOD      SUNNY     84  65  51 SE16      29.75F
GATESVILLE     SUNNY     82  63  51 MISG      29.79F
HAMILTON       SUNNY     82  61  49 E10G20    29.79F
LAMPASAS       SUNNY     82  64  54 SE14G21   29.77S
$$

TXZ095>097-106>112-122>126-135>138-148>153-164>167-282300-
EAST TEXAS

CITY           SKY/WX    TMP DP  RH WIND       PRES   REMARKS
PARIS          SUNNY     81  52  36 E12       29.87F
SULPHUR SPRNGS SUNNY     82  57  42 SE8       29.86F
MOUNT PLEASANT SUNNY     84  53  34 SE7       29.86F
GILMER         SUNNY     84  57  39 E9        29.84F
MINEOLA        SUNNY     84  57  39 SE5       29.84F
TYLER          SUNNY     86  57  37 E14G20    29.82F
LONGVIEW       SUNNY     84  59  42 E10       29.83F
MARSHALL       SUNNY     85  56  36 E8        29.87F
ATHENS         SUNNY     82  55  39 E9G17     29.79F
PALESTINE      SUNNY     87  58  37 E9G16     29.81F
JACKSONVILLE   SUNNY     86  54  33 E8        29.84F
HENDERSON      SUNNY     85  53  33 E10G18    29.84F
CENTER         FAIR      88  59  37 E8        29.83F
NACOGDOCHES    SUNNY     86  63  45 SE12G18   29.81F
LUFKIN         SUNNY     87  64  46 E13       29.80F
$$

SUPPLEMENTAL OBSERVATIONS (CENTRAL)

CITY           SKY/WX    TMP DP  RH WIND       PRES   REMARKS
PAT MAYSE LAKE   N/A     81  50  34 E5          N/A
GREENVILLE       N/A     82  57  42 E9          N/A
CEDAR HILL       N/A     84  59  42 SE5G14      N/A
MCGREGOR         N/A     84  63  48 E13         N/A
TEMPLE           N/A     84  63  48 E12         N/A
$$

SUPPLEMENTAL OBSERVATIONS (WEST)

CITY           SKY/WX    TMP DP  RH WIND       PRES   REMARKS
MILLERS CREEK    N/A     84  48  28 SE18G30     N/A
POSSUM KINGDOM   N/A     84  52  32 SE15G22     N/A
GRANBURY         N/A     84  52  32 SE17G23     N/A
HAMBY            N/A     84  54  34 SE12G22     N/A
IVIE RESERVOIR   N/A     84  52  32 SE16G22     N/A
COLORADO BEND    N/A     84  59  42 S13         N/A
$$

SUPPLEMENTAL OBSERVATIONS (EAST)

CITY           SKY/WX    TMP DP  RH WIND       PRES   REMARKS
CLARKSVILLE      N/A     82  54  36 E6          N/A
TEXARKANA        N/A     86  52  30 E5          N/A
LINDEN           N/A     86  54  32 E5          N/A
GILMER           N/A     86  57  37 E7          N/A
HENDERSON        N/A     86  54  32 E12         N/A
LUFKIN           N/A     88  66  48 MISG        N/A  HX  90
N SABINE NF      N/A     90  63  40 MISG        N/A  HX  90
S SABINE NF      N/A     88  64  45 NE5         N/A
$$

SUPPLEMENTAL OBSERVATIONS ARE A COLLECTION OF AUTOMATED INSTRUMENTS
THAT ARE MAINTAINED BY A VARIETY OF FEDERAL AND STATE AGENCIES.
CERTAIN ELEMENTS...SUCH AS HUMIDITY VALUES AND SUSTAINED WIND
SPEEDS...MAY BE APPROXIMATED.





USA.gov is the U.S. government's official web portal to all federal, state and local government web resources and services.